| time (UTC) | temp F | wind direction | speed knots | gust knots | rain 1hr in | rain 24hr in | rain mn in | humidity % | barometer mb |
| 20260505014703 | 67 | 70 | 3.5 | 7.0 | 0.02 | 0.51 | 0.39 | 95 | 1011.9 |
| 20260505012703 | 67 | 60 | 3.5 | 7.0 | 0.06 | 0.51 | 0.39 | 96 | 1012.1 |
| 20260505011703 | 67 | 60 | 3.5 | 7.0 | 0.06 | 0.51 | 0.39 | 96 | 1012.2 |
| 20260505010704 | 67 | 60 | 2.6 | 6.1 | 0.08 | 0.51 | 0.39 | 96 | 1012.1 |
| 20260505005704 | 67 | 90 | 1.7 | 6.1 | 0.08 | 0.51 | 0.39 | 96 | 1012.1 |
| 20260505004703 | 67 | 140 | 0.9 | 6.1 | 0.06 | 0.49 | 0.37 | 96 | 1012.0 |
| 20260505003708 | 67 | 120 | 1.7 | 6.1 | 0.08 | 0.37 | 0.26 | 96 | 1011.9 |
| 20260505002704 | 66 | 120 | 2.6 | 6.1 | 0.06 | 0.45 | 0.33 | 96 | 1011.9 |
| 20260505001705 | 66 | 100 | 0.9 | 6.1 | 0.08 | 0.45 | 0.33 | 96 | 1011.9 |
| 20260505000704 | 66 | 100 | 1.7 | 6.1 | 0.06 | 0.43 | 0.31 | 95 | 1011.8 |
| 20260504235704 | 66 | 60 | 1.7 | 6.1 | 0.08 | 0.43 | 0.31 | 96 | 1011.8 |
| 20260504234703 | 66 | 70 | 1.7 | 6.1 | 0.10 | 0.43 | 0.31 | 96 | 1011.7 |
| 20260504233703 | 66 | 100 | 2.6 | 6.1 | 0.10 | 0.41 | 0.30 | 96 | 1011.5 |
| 20260504232704 | 65 | 90 | 0.9 | 6.1 | 0.08 | 0.39 | 0.28 | 96 | 1011.5 |
| 20260504231704 | 65 | 50 | 2.6 | 6.1 | 0.06 | 0.37 | 0.26 | 96 | 1011.5 |
| 20260504230704 | 65 | 80 | 1.7 | 5.2 | 0.08 | 0.37 | 0.26 | 95 | 1011.4 |
| 20260504225704 | 66 | 80 | 1.7 | 5.2 | 0.06 | 0.35 | 0.24 | 96 | 1011.5 |
| 20260504224703 | 66 | 110 | 0.9 | 5.2 | 0.10 | 0.33 | 0.22 | 96 | 1011.4 |
| 20260504223704 | 65 | 130 | 1.7 | 5.2 | 0.10 | 0.31 | 0.20 | 95 | 1011.3 |
| 20260504222705 | 65 | 120 | 2.6 | 5.2 | 0.12 | 0.31 | 0.20 | 95 | 1011.2 |
| 20260504221704 | 65 | 120 | 1.7 | 5.2 | 0.14 | 0.31 | 0.20 | 95 | 1011.2 |
| 20260504220704 | 65 | 70 | 2.6 | 4.3 | 0.12 | 0.30 | 0.18 | 95 | 1011.1 |
| 20260504215703 | 65 | 50 | 1.7 | 4.3 | 0.12 | 0.30 | 0.18 | 95 | 1011.1 |
| 20260504214704 | 65 | 90 | 0.9 | 4.3 | 0.06 | 0.26 | 0.12 | 95 | 1010.9 |
| 20260504213703 | 65 | 90 | 0.9 | 4.3 | 0.04 | 0.24 | 0.10 | 94 | 1010.8 |
| 20260504212703 | 65 | 90 | 0.9 | 4.3 | 0.02 | 0.22 | 0.08 | 94 | 1010.7 |
| 20260504211704 | 65 | 90 | 1.7 | 4.3 | 0.02 | 0.20 | 0.06 | 93 | 1010.6 |
| 20260504210703 | 65 | 120 | 0.9 | 6.1 | 0.04 | 0.20 | 0.06 | 92 | 1010.5 |
| 20260504205703 | 65 | 110 | 0.9 | 6.1 | 0.04 | 0.20 | 0.06 | 93 | 1010.5 |
| 20260504204703 | 65 | 130 | 0.9 | 6.1 | 0.04 | 0.20 | 0.06 | 92 | 1010.5 |
| 20260504203704 | 65 | 120 | 0.9 | 6.1 | 0.06 | 0.20 | 0.06 | 93 | 1010.4 |
| 20260504202703 | 65 | 120 | 0.9 | 6.1 | 0.06 | 0.20 | 0.06 | 91 | 1010.4 |
| 20260504201703 | 65 | 130 | 1.7 | 6.1 | 0.04 | 0.18 | 0.04 | 90 | 1010.2 |
| 20260504200704 | 66 | 110 | 1.7 | 10.4 | 0.02 | 0.16 | 0.02 | 89 | 1010.1 |
| 20260504195703 | 66 | 130 | 1.7 | 10.4 | 0.02 | 0.16 | 0.02 | 88 | 1010.1 |
| 20260504194703 | 66 | 120 | 1.7 | 10.4 | 0.02 | 0.16 | 0.02 | 86 | 1010.0 |
| 20260504193704 | 66 | 100 | 3.5 | 10.4 | 0.00 | 0.14 | 0.00 | 86 | 1009.8 |
| 20260504192704 | 66 | 130 | 1.7 | 10.4 | 0.00 | 0.14 | 0.00 | 86 | 1009.8 |
| 20260504191703 | 66 | 70 | 1.7 | 10.4 | 0.00 | 0.14 | 0.00 | 86 | 1009.9 |
| 20260504190703 | 66 | 110 | 2.6 | 10.4 | 0.00 | 0.14 | 0.00 | 86 | 1009.9 |
| 20260504185704 | 65 | 110 | 3.5 | 10.4 | 0.00 | 0.14 | 0.00 | 86 | 1009.9 |
| 20260504184703 | 65 | 100 | 1.7 | 10.4 | 0.00 | 0.14 | 0.00 | 86 | 1010.0 |
| 20260504183703 | 65 | 120 | 2.6 | 10.4 | 0.00 | 0.14 | 0.00 | 85 | 1010.1 |
| 20260504182704 | 65 | 110 | 1.7 | 10.4 | 0.00 | 0.14 | 0.00 | 85 | 1010.2 |
| 20260504181703 | 65 | 130 | 3.5 | 10.4 | 0.00 | 0.14 | 0.00 | 85 | 1010.2 |
| 20260504180703 | 66 | 110 | 3.5 | 10.4 | 0.00 | 0.14 | 0.00 | 84 | 1010.3 |
| 20260504175703 | 65 | 130 | 2.6 | 10.4 | 0.00 | 0.14 | 0.00 | 83 | 1010.4 |
| 20260504174704 | 65 | 110 | 3.5 | 10.4 | 0.00 | 0.14 | 0.00 | 84 | 1010.4 |
| 20260504173706 | 65 | 120 | 3.5 | 10.4 | 0.00 | 0.14 | 0.00 | 83 | 1010.6 |
| 20260504172703 | 65 | 130 | 3.5 | 10.4 | 0.00 | 0.14 | 0.00 | 83 | 1010.8 |
| 20260504171705 | 65 | 130 | 3.5 | 10.4 | 0.00 | 0.14 | 0.00 | 84 | 1010.9 |
| 20260504170703 | 65 | 100 | 3.5 | 12.2 | 0.00 | 0.14 | 0.00 | 83 | 1011.0 |
| 20260504150704 | 64 | 120 | 1.7 | 12.2 | 0.00 | 0.14 | 0.14 | 83 | 1012.1 |
| 20260504140703 | 64 | 60 | 3.5 | 14.8 | 0.00 | 0.14 | 0.14 | 83 | 1012.6 |
| 20260504130703 | 63 | 70 | 5.2 | 12.2 | 0.02 | 0.14 | 0.14 | 84 | 1012.8 |
| 20260504110703 | 63 | 50 | 3.5 | 19.1 | 0.08 | 0.10 | 0.10 | 82 | 1012.9 |
| 20260504081704 | 73 | 50 | 7.8 | 24.3 | 0.00 | 0.02 | 0.02 | 65 | 1010.8 |
| 20260504080703 | 73 | 50 | 7.8 | 22.6 | 0.00 | 0.02 | 0.02 | 64 | 1010.6 |
| 20260504050704 | 78 | 50 | 8.7 | 28.7 | 0.00 | 0.02 | 0.02 | 50 | 1011.7 |
| 20260504045704 | 77 | 40 | 11.3 | 28.7 | 0.00 | 0.02 | 0.02 | 49 | 1012.0 |
| 20260504044704 | 78 | 50 | 7.8 | 28.7 | 0.00 | 0.02 | 0.02 | 51 | 1011.8 |
| 20260504043704 | 77 | 50 | 7.8 | 28.7 | 0.00 | 0.02 | 0.02 | 53 | 1012.0 |
| 20260504042704 | 77 | 60 | 7.8 | 28.7 | 0.00 | 0.02 | 0.02 | 52 | 1012.1 |
| 20260504041703 | 77 | 40 | 9.6 | 28.7 | 0.00 | 0.02 | 0.02 | 56 | 1012.4 |
| 20260504040703 | 76 | 40 | 10.4 | 22.6 | 0.00 | 0.02 | 0.02 | 53 | 1012.3 |
| 20260504035703 | 76 | 50 | 8.7 | 22.6 | 0.00 | 0.02 | 0.02 | 54 | 1012.7 |
| 20260504034704 | 76 | 40 | 9.6 | 22.6 | 0.00 | 0.02 | 0.02 | 55 | 1013.0 |
| 20260504033703 | 75 | 40 | 7.8 | 22.6 | 0.00 | 0.02 | 0.02 | 57 | 1012.7 |
| 20260504032704 | 74 | 40 | 8.7 | 22.6 | 0.00 | 0.02 | 0.02 | 54 | 1012.9 |
| 20260504031704 | 74 | 40 | 8.7 | 22.6 | 0.00 | 0.02 | 0.02 | 54 | 1012.8 |
| 20260504030703 | 73 | 50 | 7.8 | 18.2 | 0.00 | 0.02 | 0.02 | 56 | 1013.2 |
| 20260504025703 | 74 | 40 | 7.8 | 18.2 | 0.00 | 0.02 | 0.02 | 54 | 1013.2 |
| 20260504024703 | 74 | 50 | 9.6 | 18.2 | 0.00 | 0.02 | 0.02 | 54 | 1013.1 |
| 20260504023704 | 74 | 50 | 5.2 | 18.2 | 0.00 | 0.02 | 0.02 | 53 | 1013.3 |
| 20260504022704 | 74 | 60 | 7.8 | 18.2 | 0.00 | 0.02 | 0.02 | 57 | 1013.3 |
| 20260504021703 | 73 | 70 | 5.2 | 18.2 | 0.00 | 0.02 | 0.02 | 60 | 1013.6 |
| 20260504020704 | 71 | 60 | 6.1 | 24.3 | 0.00 | 0.02 | 0.02 | 67 | 1013.7 |
| 20260504015703 | 71 | 60 | 7.8 | 24.3 | 0.00 | 0.02 | 0.02 | 67 | 1013.7 |